#timestamp,LO_Frequency,Hit,StdDev 
1459900815.8,286047002.0,N
1459900835.7,286046998.7,N
1459900855.5,286046999.9,N
1459900875.3,286047000.4,N
1459900895.1,286047001.6,N
1459900915.9,286047002.0,N
1459900935.7,286047002.5,N
1459900955.5,286047001.8,N
1459900975.4,286046999.7,N
1459900995.2,286047002.3,N
1459901015.0,286047001.3,N
1459901015.9,286047001.3,N
1459901035.8,286047004.3,Y
1459901055.6,286047002.5,P
1459901075.4,286047000.7,N
1459901095.3,286047001.0,N
1459901115.1,286046999.9,N
1459901135.8,286047001.2,N
1459901155.7,286047000.4,N
1459901175.5,286046998.8,N
1459901195.3,286046997.1,N
1459901215.2,286046998.2,N
1459901235.9,286046997.8,N
1459901255.7,286046996.8,N
1459901275.6,286046999.5,N
1459901295.4,286046997.3,N
1459901315.2,286046996.5,N
1459901335.0,286046995.5,N
1459901336.0,286046995.5,N
1459901355.8,286046995.0,N
1459901375.6,286046997.6,N
1459901395.4,286046996.6,N
1459901415.3,286046997.8,N
1459901435.1,286046995.3,N
1459901455.8,286046993.9,N
1459901475.7,286046995.0,N
1459901495.5,286046995.1,N
1459901515.3,286046996.0,N
1459901535.2,286046994.9,N
1459901555.9,286046998.5,N
1459901575.7,286046998.4,N
1459901595.6,286046999.2,N
1459901615.4,286046997.4,N
1459901635.2,286046996.8,N
1459901655.0,286046996.6,N
1459901656.0,286046996.6,N
1459901675.8,286046998.7,N
1459901695.6,286046998.6,N
1459901715.4,286047000.6,N
1459901735.3,286047000.7,N
1459901755.1,286047000.7,N
1459901775.8,286046998.5,N
1459901795.7,286047000.9,N
1459901815.5,286046999.3,N
1459901835.3,286046999.3,N
1459901855.2,286046998.6,N
1459901875.9,286046996.9,N
1459901895.7,286046997.0,N
1459901915.6,286046999.5,N
1459901935.4,286046998.6,N
1459901955.2,286046999.9,N
1459901975.1,286047000.4,N
1459901976.0,286047000.4,N
1459901995.8,286047001.2,N
1459902015.6,286046999.3,N
1459902035.4,286046998.8,N
1459902055.3,286046998.1,N
1459902075.1,286047000.4,N
1459902095.8,286047000.7,N
1459902115.7,286046998.1,N
1459902135.5,286047000.7,N
1459902155.3,286047000.1,N
1459902175.2,286047000.9,N
1459902195.9,286046999.1,N
1459902215.7,286046999.4,N
1459902235.6,286047001.1,N
1459902255.4,286046997.7,N
1459902275.2,286046993.4,Y
1459902295.1,286046997.4,P
1459902296.0,286046997.4,N
1459902315.8,286046996.8,P
1459902335.6,286046997.1,N
1459902355.5,286046998.6,N
1459902375.3,286047002.2,N
1459902395.1,286046998.5,N
1459902415.9,286046999.1,N
1459902435.7,286047000.2,N
1459902455.5,286047001.4,N
1459902475.3,286047000.3,N
1459902495.2,286046998.8,N
1459902515.0,286047002.6,N
1459902515.9,286047002.6,N
1459902535.7,286046999.8,N
1459902555.6,286047001.8,N
1459902575.4,286047000.1,N
1459902595.2,286047001.1,N
1459902615.1,286046999.5,N
1459902616.0,286046999.5,N
1459902635.8,286046999.3,N
1459902655.6,286046997.4,N
1459902675.5,286046997.9,N
1459902695.3,286046997.4,N
1459902715.1,286046996.5,N
1459902735.9,286046998.8,N
1459902755.7,286046995.3,N
1459902775.5,286046995.8,N
1459902795.3,286046996.1,N
1459902815.2,286046995.0,N
1459902835.0,286046997.3,N
1459902835.9,286046997.3,N
1459902855.7,286046999.6,N
1459902875.6,286046997.5,N
1459902895.4,286046996.5,N
1459902915.2,286047001.2,N
1459902935.1,286047000.1,N
1459902936.0,286047000.1,N
1459902955.8,286046997.5,N
1459902975.6,286046998.0,N
1459902995.5,286046995.4,N
1459903015.3,286046998.0,N
1459903035.1,286046993.8,N
1459903055.9,286046995.4,N
1459903075.7,286046996.2,N
1459903095.5,286046995.8,N
1459903115.4,286046997.9,N
1459903135.2,286046998.4,N
1459903155.0,286046998.7,N
1459903155.9,286046998.7,N
1459903175.8,286046996.8,N
1459903195.6,286046997.8,N
1459903215.4,286046997.8,N
1459903235.3,286046997.9,N
1459903255.1,286046998.4,N
1459903256.0,286046998.4,N
1459903275.8,286046997.0,N
1459903295.6,286046996.8,N
1459903315.5,286046996.9,N
1459903335.3,286046998.1,N
1459903355.1,286046997.7,N
1459903375.9,286046996.7,N
1459903395.7,286047000.1,N
1459903415.5,286047002.8,N
1459903435.4,286047000.4,N
1459903455.2,286047000.5,N
1459903475.0,286046996.9,N
1459903475.9,286046996.9,N
1459903495.8,286046998.3,N
1459903515.6,286047001.1,N
1459903535.4,286047001.2,N
1459903555.3,286047001.1,N
1459903575.1,286047000.8,N
1459903576.0,286047000.8,N
1459903595.8,286046996.5,N
1459903615.7,286047000.9,N
1459903635.5,286047000.6,N
1459903655.3,286046999.9,N
1459903675.2,286047002.1,N
1459903695.9,286046999.1,N
1459903715.7,286047000.7,N
1459903735.5,286047000.4,N
1459903755.4,286047000.2,N
1459903775.2,286047003.4,N
1459903795.0,286047001.8,N
1459903795.9,286047001.8,N
1459903815.8,286047000.5,N
1459903835.6,286046999.8,N
1459903855.4,286047004.0,N
1459903875.3,286047001.6,N
1459903895.1,286047002.3,N
1459903896.0,286047002.3,N
1459903915.8,286047002.0,N
1459903935.7,286047002.4,N
1459903955.5,286047000.4,N
1459903975.3,286047001.0,N
1459903995.2,286046998.5,N
1459904015.9,286047000.6,N
1459904035.7,286047000.6,N
1459904055.6,286047000.8,N
1459904075.4,286047000.5,N
1459904095.2,286047002.3,N
1459904115.0,286046999.9,N
1459904115.9,286046999.9,N
1459904135.8,286047000.3,N
1459904155.6,286047000.2,N
1459904175.4,286047002.0,N
1459904195.3,286047001.6,N
1459904215.1,286047004.3,Y
1459904235.8,286047002.2,P
1459904255.7,286047001.5,N
1459904275.5,286047002.0,P
1459904295.3,286047001.4,Y
1459904315.2,286047002.1,P
1459904335.0,286047002.1,P
1459904335.9,286047002.1,P
1459904355.8,286047004.4,Y
1459904375.6,286047000.1,P
1459904395.4,286047000.3,N
